sat.trackr.live / text

‹ back to catalog

STARLINK-2381

NORAD 47800 · 2021-018P

PAYLOAD ACTIVE UNKNOWN

§ Identity

Operator
Country
US
Launch date
2021-03-11
Launch site
AFETR
Launch vehicle
Mass (kg)
RCS (m²)

Purposes: comms

External: N2YO · Heavens-Above · Gunter

§ Orbital elements

Epoch: 2026-09-20T02:58:23.265696Z

Period
94.01 min
Inclination
53.1586°
Eccentricity
0.0001173
Mean motion
15.31705745 rev/d
Perigee alt
469.9 km
Apogee alt
471.5 km
Semi-major
6,848.9 km
B*
1.0455e-4
RAAN
54.1959°
Arg perigee
83.8512°
Mean anomaly
276.2623°
Rev number
30,655

§ Raw data

STARLINK-23811 47800U 21018P   26263.12388039  .00002881  00000+0  10455-3 0  99902 47800  53.1586  54.1959 0001173  83.8512 276.2623 15.31705745306556

JSON: /api/v1/satellites/47800 · /tle

For live sub-satellite position, see the globe view (requires WebGL).

§ Visibility from observer

Set your observer location to see the next 7 days of passes ≥ 10°. The values pass through the URL so the page stays shareable.

No JS? Fill the form by hand. The geolocation button needs JavaScript.